Regional Weather Roundup
Issued by NWS Kansas City/Pleasant Hill, MO

Home | Current Version | Previous Version | Graphics & Text | Print | Product List | Glossary Off
Versions: 1 2 3 4 5 6 7 8 9 10 11 12 13 14 15 16 17 18 19 20 21 22 23 24 25 26 27 28 29 30 31 32 33 34 35 36 37 38 39 40 41 42 43 44 45 46 47 48 49 50

000
ASUS43 KEAX 271004
RWREAX

WEATHER ROUNDUP FOR EASTERN KANSAS AND NORTHWEST MISSOURI
NATIONAL WEATHER SERVICE KANSAS CITY/PLEASANT HILL MO
400 AM CST FRI FEB 27 2015

KSZ040-057-103>105-MOZ028-029-037-043-271100-
...KANSAS CITY METROPOLITAN AREA...

CITY           SKY/WX    TMP DP  RH WIND       PRES   REMARKS
K.C. INTL      PTCLDY     2  -4  76 N5        30.58S WCI  -8
K.C. DOWNTOWN  CLEAR      5  -4  66 N5        30.62S WCI  -4
LEES SUMMIT    CLEAR      3  -5  69 N3        30.59S
OLATHE - IXD   CLEAR      2  -3  80 N6        30.58F WCI  -9
OLATHE - OJC   FAIR       5  -5  63 N6        30.56F WCI  -6
LAWRENCE       CLEAR      0  -5  79 N5        30.61F WCI -10

$$

MOZ001>008-011>017-020>025-030>033-038>040-044>046-053-054-271100-
...NORTHERN AND CENTRAL MISSOURI...

CITY           SKY/WX    TMP DP  RH WIND       PRES   REMARKS
ST. JOSEPH     CLEAR      1  -5  75 CALM      30.62S
MOSBY          SUNNY      5   0  78 NW3       30.62R
WARRENSBURG    CLEAR      5   0  78 CALM      30.61R
WHITEMAN AFB   CLEAR      3  -2  81 N3        30.59R
CLINTON        CLEAR      9   1  72 N7        30.61R WCI  -3
SEDALIA        FAIR       5  -3  69 N6        30.60R WCI  -6
WARSAW         NOT AVBL
MARSHALL       CLEAR      7   0  72 N7        30.60S WCI  -5
CHILLICOTHE      N/A      1  -6  72 CALM      30.61S
MOBERLY        CLEAR      3  -6  66 NW6       30.58S WCI  -8
KIRKSVILLE     CLEAR     -3  -7  82 NW3       30.56F

$$

MOZ041-047>049-056>058-063>065-088>090-097-271100-
...EASTERN AND SOUTHERN MISSOURI...

CITY           SKY/WX    TMP DP  RH WIND       PRES   REMARKS
ST. LOUIS INTL CLEAR      4  -5  66 NW5       30.57S WCI  -5
SPIRIT OF STL  CLEAR      5  -5  63 NW7       30.59R WCI  -7
COLUMBIA       CLEAR      3  -4  72 N8        30.57R WCI -10
JEFFERSON CITY CLEAR      5  -4  66 N7        30.61R WCI  -7
MEXICO         CLEAR      3  -2  78 NW5       30.57R WCI  -6
HANNIBAL       CLEAR     -2  -9  71 NW6       30.57S WCI -14
ROLLA          CLEAR      4  -4  69 N6        30.51R WCI  -7
OSAGE BEACH    CLEAR      5   0  78 CALM      30.56R
SPRINGFIELD    CLEAR      9   0  67 N10       30.50F WCI  -5
NEVADA         CLEAR      7   1  78 N6        30.60S WCI  -3
JOPLIN         CLEAR     10   3  73 N7        30.55F WCI  -1
WEST PLAINS    CLEAR      8  -1  66 N7        30.50R WCI  -3

$$

IAZ060-094-KSZ022-034>040-054-083-096-NEZ052-066-093-271100-
...KANSAS...SOUTHEAST NEBRASKA AND IOWA...

CITY           SKY/WX    TMP DP  RH WIND       PRES   REMARKS
TOPEKA         CLEAR      4  -2  76 N3        30.61F
MANHATTAN      PTCLDY     7   2  80 CALM      30.58F
EMPORIA        PTCLDY     6   0  76 NE5       30.55F WCI  -3
CHANUTE        CLEAR      8   0  69 N12       30.58F WCI  -7
WICHITA        CLOUDY    11   0  61 NE9       30.54S WCI  -2
OMAHA          CLEAR     -2  -7  79 NW6       30.60F WCI -14
LINCOLN        CLEAR     -5  -9  83 N6        30.59F WCI -18
FALLS CITY     CLEAR     -3  -8  79 NW5       30.59F WCI -13
LAMONI         CLEAR     -5  -9  83 W5        30.56S WCI -16
DES MOINES     CLEAR     -5 -11  75 NW3       30.58R

$$




USA.gov is the U.S. government's official web portal to all federal, state and local government web resources and services.